Year,Month,Day,Hour,Minute,Value (Times are PST for temperature in C)
2009,09,20,00,00,12.20
2009,09,20,00,01,12.20
2009,09,20,00,02,12.20
2009,09,20,00,03,12.20
2009,09,20,00,04,12.20
2009,09,20,00,05,12.20
2009,09,20,00,06,12.20
2009,09,20,00,07,12.20
2009,09,20,00,08,12.20
2009,09,20,00,09,12.20
2009,09,20,00,10,12.20
2009,09,20,00,11,12.20
2009,09,20,00,12,12.20
2009,09,20,00,13,12.20
2009,09,20,00,14,12.20
2009,09,20,00,15,12.20
2009,09,20,00,16,12.20
2009,09,20,00,17,12.20
2009,09,20,00,18,12.20
2009,09,20,00,19,12.20
2009,09,20,00,20,12.20
2009,09,20,00,21,12.20
2009,09,20,00,22,12.10
2009,09,20,00,23,12.10
2009,09,20,00,24,12.10
2009,09,20,00,25,12.10
2009,09,20,00,26,12.10
2009,09,20,00,27,12.00
2009,09,20,00,28,12.00
2009,09,20,00,29,12.00
2009,09,20,00,30,12.00
2009,09,20,00,31,11.90
2009,09,20,00,32,11.90
2009,09,20,00,33,11.90
2009,09,20,00,34,11.90
2009,09,20,00,35,11.90
2009,09,20,00,36,11.90
2009,09,20,00,37,11.90
2009,09,20,00,38,11.90
2009,09,20,00,39,11.90
2009,09,20,00,40,11.90
2009,09,20,00,41,11.90
2009,09,20,00,42,11.90
2009,09,20,00,43,11.90
2009,09,20,00,44,11.90
2009,09,20,00,45,11.90
2009,09,20,00,46,11.80
2009,09,20,00,47,11.80
2009,09,20,00,48,11.80
2009,09,20,00,49,11.80
2009,09,20,00,50,11.80
2009,09,20,00,51,11.80
2009,09,20,00,52,11.80
2009,09,20,00,53,11.80
2009,09,20,00,54,11.70
2009,09,20,00,55,11.70
2009,09,20,00,56,11.70
2009,09,20,00,57,11.70
2009,09,20,00,58,11.70
2009,09,20,00,59,11.70
2009,09,20,01,00,11.70
2009,09,20,01,01,11.70
2009,09,20,01,02,11.70
2009,09,20,01,03,11.70
2009,09,20,01,04,11.70
2009,09,20,01,05,11.60
2009,09,20,01,06,11.60
2009,09,20,01,07,11.60
2009,09,20,01,08,11.50
2009,09,20,01,09,11.50
2009,09,20,01,10,11.40
2009,09,20,01,11,11.40
2009,09,20,01,12,11.40
2009,09,20,01,13,11.30
2009,09,20,01,14,11.30
2009,09,20,01,15,11.30
2009,09,20,01,16,11.20
2009,09,20,01,17,11.20
2009,09,20,01,18,11.20
2009,09,20,01,19,11.10
2009,09,20,01,20,11.10
2009,09,20,01,21,11.00
2009,09,20,01,22,11.00
2009,09,20,01,23,10.90
2009,09,20,01,24,10.90
2009,09,20,01,25,10.90
2009,09,20,01,26,10.80
2009,09,20,01,27,10.80
2009,09,20,01,28,10.80
2009,09,20,01,29,10.70
2009,09,20,01,30,10.70
2009,09,20,01,31,10.70
2009,09,20,01,32,10.70
2009,09,20,01,33,10.70
2009,09,20,01,34,10.60
2009,09,20,01,35,10.60
2009,09,20,01,36,10.60
2009,09,20,01,37,10.60
2009,09,20,01,38,10.60
2009,09,20,01,39,10.60
2009,09,20,01,40,10.60
2009,09,20,01,41,10.60
2009,09,20,01,42,10.60
2009,09,20,01,43,10.60
2009,09,20,01,44,10.60
2009,09,20,01,45,10.60
2009,09,20,01,46,10.60
2009,09,20,01,47,10.60
2009,09,20,01,48,10.60
2009,09,20,01,49,10.60
2009,09,20,01,50,10.60
2009,09,20,01,51,10.60
2009,09,20,01,52,10.60
2009,09,20,01,53,10.60
2009,09,20,01,54,10.60
2009,09,20,01,55,10.70
2009,09,20,01,56,10.70
2009,09,20,01,57,10.80
2009,09,20,01,58,10.80
2009,09,20,01,59,10.80
2009,09,20,02,00,10.80
2009,09,20,02,01,10.90
2009,09,20,02,02,10.90
2009,09,20,02,03,10.90
2009,09,20,02,04,11.00
2009,09,20,02,05,11.10
2009,09,20,02,06,11.10
2009,09,20,02,07,11.10
2009,09,20,02,08,11.20
2009,09,20,02,09,11.20
2009,09,20,02,10,11.20
2009,09,20,02,11,11.20
2009,09,20,02,12,11.20
2009,09,20,02,13,11.20
2009,09,20,02,14,11.20
2009,09,20,02,15,11.20
2009,09,20,02,16,11.30
2009,09,20,02,17,11.20
2009,09,20,02,18,11.30
2009,09,20,02,19,11.30
2009,09,20,02,20,11.30
2009,09,20,02,21,11.30
2009,09,20,02,22,11.20
2009,09,20,02,23,11.20
2009,09,20,02,24,11.20
2009,09,20,02,25,11.20
2009,09,20,02,26,11.20
2009,09,20,02,27,11.20
2009,09,20,02,28,11.30
2009,09,20,02,29,11.30
2009,09,20,02,30,11.30
2009,09,20,02,31,11.30
2009,09,20,02,32,11.30
2009,09,20,02,33,11.20
2009,09,20,02,34,11.20
2009,09,20,02,35,11.20
2009,09,20,02,36,11.20
2009,09,20,02,37,11.10
2009,09,20,02,38,11.10
2009,09,20,02,39,11.10
2009,09,20,02,40,11.00
2009,09,20,02,41,11.00
2009,09,20,02,42,11.00
2009,09,20,02,43,10.90
2009,09,20,02,44,10.90
2009,09,20,02,45,10.90
2009,09,20,02,46,10.90
2009,09,20,02,47,10.90
2009,09,20,02,48,10.80
2009,09,20,02,49,10.80
2009,09,20,02,50,10.80
2009,09,20,02,51,10.80
2009,09,20,02,52,10.80
2009,09,20,02,53,10.80
2009,09,20,02,54,10.70
2009,09,20,02,55,10.70
2009,09,20,02,56,10.70
2009,09,20,02,57,10.70
2009,09,20,02,58,10.70
2009,09,20,02,59,10.70
2009,09,20,03,00,10.60
2009,09,20,03,01,10.60
2009,09,20,03,02,10.60
2009,09,20,03,03,10.60
2009,09,20,03,04,10.60
2009,09,20,03,05,10.50
2009,09,20,03,06,10.50
2009,09,20,03,07,10.40
2009,09,20,03,08,10.40
2009,09,20,03,09,10.40
2009,09,20,03,10,10.40
2009,09,20,03,11,10.30
2009,09,20,03,12,10.30
2009,09,20,03,13,10.30
2009,09,20,03,14,10.30
2009,09,20,03,15,10.20
2009,09,20,03,16,10.20
2009,09,20,03,17,10.20
2009,09,20,03,18,10.20
2009,09,20,03,19,10.10
2009,09,20,03,20,10.10
2009,09,20,03,21,10.10
2009,09,20,03,22,10.10
2009,09,20,03,23,10.10
2009,09,20,03,24,10.10
2009,09,20,03,25,10.10
2009,09,20,03,26,10.10
2009,09,20,03,27,10.10
2009,09,20,03,28,10.00
2009,09,20,03,29,10.00
2009,09,20,03,30,10.00
2009,09,20,03,31,10.00
2009,09,20,03,32,10.00
2009,09,20,03,33,10.00
2009,09,20,03,34,10.00
2009,09,20,03,35,10.00
2009,09,20,03,36,10.00
2009,09,20,03,37,10.00
2009,09,20,03,38,10.00
2009,09,20,03,39,10.00
2009,09,20,03,40,10.00
2009,09,20,03,41,9.90
2009,09,20,03,42,9.90
2009,09,20,03,43,9.90
2009,09,20,03,44,9.90
2009,09,20,03,45,9.90
2009,09,20,03,46,9.90
2009,09,20,03,47,9.90
2009,09,20,03,48,9.90
2009,09,20,03,49,9.90
2009,09,20,03,50,9.80
2009,09,20,03,51,9.80
2009,09,20,03,52,9.80
2009,09,20,03,53,9.80
2009,09,20,03,54,9.80
2009,09,20,03,55,9.80
2009,09,20,03,56,9.80
2009,09,20,03,57,9.80
2009,09,20,03,58,9.80
2009,09,20,03,59,9.80
2009,09,20,04,00,9.80
2009,09,20,04,01,9.80
2009,09,20,04,02,9.80
2009,09,20,04,03,9.80
2009,09,20,04,04,9.80
2009,09,20,04,05,9.80
2009,09,20,04,06,9.80
2009,09,20,04,07,9.80
2009,09,20,04,08,9.80
2009,09,20,04,09,9.70
2009,09,20,04,10,9.70
2009,09,20,04,11,9.70
2009,09,20,04,12,9.70
2009,09,20,04,13,9.70
2009,09,20,04,14,9.70
2009,09,20,04,15,9.70
2009,09,20,04,16,9.60
2009,09,20,04,17,9.60
2009,09,20,04,18,9.60
2009,09,20,04,19,9.60
2009,09,20,04,20,9.60
2009,09,20,04,21,9.60
2009,09,20,04,22,9.60
2009,09,20,04,23,9.60
2009,09,20,04,24,9.60
2009,09,20,04,25,9.60
2009,09,20,04,26,9.70
2009,09,20,04,27,9.70
2009,09,20,04,28,9.70
2009,09,20,04,29,9.70
2009,09,20,04,30,9.70
2009,09,20,04,31,9.70
2009,09,20,04,32,9.70
2009,09,20,04,33,9.70
2009,09,20,04,34,9.60
2009,09,20,04,35,9.60
2009,09,20,04,36,9.60
2009,09,20,04,37,9.60
2009,09,20,04,38,9.60
2009,09,20,04,39,9.60
2009,09,20,04,40,9.50
2009,09,20,04,41,9.50
2009,09,20,04,42,9.40
2009,09,20,04,43,9.40
2009,09,20,04,44,9.30
2009,09,20,04,45,9.30
2009,09,20,04,46,9.30
2009,09,20,04,47,9.30
2009,09,20,04,48,9.20
2009,09,20,04,49,9.20
2009,09,20,04,50,9.20
2009,09,20,04,51,9.20
2009,09,20,04,52,9.10
2009,09,20,04,53,9.10
2009,09,20,04,54,9.10
2009,09,20,04,55,9.00
2009,09,20,04,56,9.00
2009,09,20,04,57,8.90
2009,09,20,04,58,8.90
2009,09,20,04,59,8.90
2009,09,20,05,00,8.80
2009,09,20,05,01,8.80
2009,09,20,05,02,8.80
2009,09,20,05,03,8.80
2009,09,20,05,04,8.70
2009,09,20,05,05,8.70
2009,09,20,05,06,8.70
2009,09,20,05,07,8.60
2009,09,20,05,08,8.60
2009,09,20,05,09,8.60
2009,09,20,05,10,8.60
2009,09,20,05,11,8.50
2009,09,20,05,12,8.50
2009,09,20,05,13,8.50
2009,09,20,05,14,8.40
2009,09,20,05,15,8.40
2009,09,20,05,16,8.40
2009,09,20,05,17,8.40
2009,09,20,05,18,8.30
2009,09,20,05,19,8.30
2009,09,20,05,20,8.30
2009,09,20,05,21,8.30
2009,09,20,05,22,8.30
2009,09,20,05,23,8.20
2009,09,20,05,24,8.20
2009,09,20,05,25,8.20
2009,09,20,05,26,8.20
2009,09,20,05,27,8.20
2009,09,20,05,28,8.10
2009,09,20,05,29,8.10
2009,09,20,05,30,8.10
2009,09,20,05,31,8.10
2009,09,20,05,32,8.10
2009,09,20,05,33,8.10
2009,09,20,05,34,8.00
2009,09,20,05,35,8.00
2009,09,20,05,36,8.00
2009,09,20,05,37,7.90
2009,09,20,05,38,7.90
2009,09,20,05,39,7.90
2009,09,20,05,40,7.90
2009,09,20,05,41,7.90
2009,09,20,05,42,7.80
2009,09,20,05,43,7.80
2009,09,20,05,44,7.80
2009,09,20,05,45,7.80
2009,09,20,05,46,7.80
2009,09,20,05,47,7.80
2009,09,20,05,48,7.80
2009,09,20,05,49,7.70
2009,09,20,05,50,7.70
2009,09,20,05,51,7.70
2009,09,20,05,52,7.70
2009,09,20,05,53,7.70
2009,09,20,05,54,7.70
2009,09,20,05,55,7.60
2009,09,20,05,56,7.60
2009,09,20,05,57,7.60
2009,09,20,05,58,7.60
2009,09,20,05,59,7.60
2009,09,20,06,00,7.50
2009,09,20,06,01,7.50
2009,09,20,06,02,7.50
2009,09,20,06,03,7.40
2009,09,20,06,04,7.40
2009,09,20,06,05,7.40
2009,09,20,06,06,7.40
2009,09,20,06,07,7.40
2009,09,20,06,08,7.30
2009,09,20,06,09,7.30
2009,09,20,06,10,7.30
2009,09,20,06,11,7.30
2009,09,20,06,12,7.30
2009,09,20,06,13,7.30
2009,09,20,06,14,7.20
2009,09,20,06,15,7.20
2009,09,20,06,16,7.20
2009,09,20,06,17,7.20
2009,09,20,06,18,7.20
2009,09,20,06,19,7.20
2009,09,20,06,20,7.20
2009,09,20,06,21,7.20
2009,09,20,06,22,7.20
2009,09,20,06,23,7.20
2009,09,20,06,24,7.20
2009,09,20,06,25,7.20
2009,09,20,06,26,7.20
2009,09,20,06,27,7.20
2009,09,20,06,28,7.20
2009,09,20,06,29,7.20
2009,09,20,06,30,7.10
2009,09,20,06,31,7.10
2009,09,20,06,32,7.10
2009,09,20,06,33,7.10
2009,09,20,06,34,7.10
2009,09,20,06,35,7.10
2009,09,20,06,36,7.10
2009,09,20,06,37,7.00
2009,09,20,06,38,7.00
2009,09,20,06,39,7.00
2009,09,20,06,40,7.00
2009,09,20,06,41,7.00
2009,09,20,06,42,6.90
2009,09,20,06,43,6.90
2009,09,20,06,44,6.90
2009,09,20,06,45,6.90
2009,09,20,06,46,6.90
2009,09,20,06,47,6.90
2009,09,20,06,48,6.90
2009,09,20,06,49,6.90
2009,09,20,06,50,6.90
2009,09,20,06,51,6.90
2009,09,20,06,52,6.90
2009,09,20,06,53,6.80
2009,09,20,06,54,6.80
2009,09,20,06,55,6.80
2009,09,20,06,56,6.80
2009,09,20,06,57,6.80
2009,09,20,06,58,6.80
2009,09,20,06,59,6.80
2009,09,20,07,00,6.80
2009,09,20,07,01,6.70
2009,09,20,07,02,6.70
2009,09,20,07,03,6.70
2009,09,20,07,04,6.70
2009,09,20,07,05,6.70
2009,09,20,07,06,6.70
2009,09,20,07,07,6.70
2009,09,20,07,08,6.70
2009,09,20,07,09,6.60
2009,09,20,07,10,6.60
2009,09,20,07,11,6.60
2009,09,20,07,12,6.60
2009,09,20,07,13,6.60
2009,09,20,07,14,6.60
2009,09,20,07,15,6.60
2009,09,20,07,16,6.60
2009,09,20,07,17,6.60
2009,09,20,07,18,6.60
2009,09,20,07,19,6.60
2009,09,20,07,20,6.60
2009,09,20,07,21,6.60
2009,09,20,07,22,6.60
2009,09,20,07,23,6.60
2009,09,20,07,24,6.60
2009,09,20,07,25,6.60
2009,09,20,07,26,6.50
2009,09,20,07,27,6.50
2009,09,20,07,28,6.50
2009,09,20,07,29,6.50
2009,09,20,07,30,6.50
2009,09,20,07,31,6.50
2009,09,20,07,32,6.50
2009,09,20,07,33,6.50
2009,09,20,07,34,6.50
2009,09,20,07,35,6.50
2009,09,20,07,36,6.50
2009,09,20,07,37,6.40
2009,09,20,07,38,6.40
2009,09,20,07,39,6.40
2009,09,20,07,40,6.40
2009,09,20,07,41,6.40
2009,09,20,07,42,6.40
2009,09,20,07,43,6.40
2009,09,20,07,44,6.40
2009,09,20,07,45,6.40
2009,09,20,07,46,6.40
2009,09,20,07,47,6.40
2009,09,20,07,48,6.40
2009,09,20,07,49,6.40
2009,09,20,07,50,6.50
2009,09,20,07,51,6.50
2009,09,20,07,52,6.50
2009,09,20,07,53,6.50
2009,09,20,07,54,6.50
2009,09,20,07,55,6.50
2009,09,20,07,56,6.50
2009,09,20,07,57,6.60
2009,09,20,07,58,6.60
2009,09,20,07,59,6.60
2009,09,20,08,00,6.60
2009,09,20,08,01,6.60
2009,09,20,08,02,6.60
2009,09,20,08,03,6.60
2009,09,20,08,04,6.60
2009,09,20,08,05,6.60
2009,09,20,08,06,6.70
2009,09,20,08,07,6.70
2009,09,20,08,08,6.70
2009,09,20,08,09,6.70
2009,09,20,08,10,6.80
2009,09,20,08,11,6.80
2009,09,20,08,12,6.80
2009,09,20,08,13,6.80
2009,09,20,08,14,6.80
2009,09,20,08,15,6.80
2009,09,20,08,16,6.80
2009,09,20,08,17,6.90
2009,09,20,08,18,6.90
2009,09,20,08,19,6.90
2009,09,20,08,20,6.90
2009,09,20,08,21,6.90
2009,09,20,08,22,6.90
2009,09,20,08,23,7.00
2009,09,20,08,24,7.00
2009,09,20,08,25,7.10
2009,09,20,08,26,7.10
2009,09,20,08,27,7.10
2009,09,20,08,28,7.20
2009,09,20,08,29,7.20
2009,09,20,08,30,7.20
2009,09,20,08,31,7.30
2009,09,20,08,32,7.30
2009,09,20,08,33,7.40
2009,09,20,08,34,7.40
2009,09,20,08,35,7.50
2009,09,20,08,36,7.50
2009,09,20,08,37,7.60
2009,09,20,08,38,7.60
2009,09,20,08,39,7.70
2009,09,20,08,40,7.70
2009,09,20,08,41,7.80
2009,09,20,08,42,7.80
2009,09,20,08,43,7.90
2009,09,20,08,44,8.00
2009,09,20,08,45,8.00
2009,09,20,08,46,8.10
2009,09,20,08,47,8.10
2009,09,20,08,48,8.10
2009,09,20,08,49,8.20
2009,09,20,08,50,8.20
2009,09,20,08,51,8.20
2009,09,20,08,52,8.30
2009,09,20,08,53,8.30
2009,09,20,08,54,8.30
2009,09,20,08,55,8.40
2009,09,20,08,56,8.40
2009,09,20,08,57,8.50
2009,09,20,08,58,8.50
2009,09,20,08,59,8.60
2009,09,20,09,00,8.60
2009,09,20,09,01,8.70
2009,09,20,09,02,8.70
2009,09,20,09,03,8.80
2009,09,20,09,04,8.80
2009,09,20,09,05,8.80
2009,09,20,09,06,8.90
2009,09,20,09,07,9.00
2009,09,20,09,08,9.00
2009,09,20,09,09,9.10
2009,09,20,09,10,9.10
2009,09,20,09,11,9.20
2009,09,20,09,12,9.30
2009,09,20,09,13,9.40
2009,09,20,09,14,9.50
2009,09,20,09,15,9.60
2009,09,20,09,16,9.60
2009,09,20,09,17,9.70
2009,09,20,09,18,9.70
2009,09,20,09,19,9.80
2009,09,20,09,20,9.90
2009,09,20,09,21,9.90
2009,09,20,09,22,10.00
2009,09,20,09,23,10.00
2009,09,20,09,24,10.10
2009,09,20,09,25,10.20
2009,09,20,09,26,10.20
2009,09,20,09,27,10.20
2009,09,20,09,28,10.30
2009,09,20,09,29,10.30
2009,09,20,09,30,10.40
2009,09,20,09,31,10.40
2009,09,20,09,32,10.50
2009,09,20,09,33,10.50
2009,09,20,09,34,10.60
2009,09,20,09,35,10.60
2009,09,20,09,36,10.70
2009,09,20,09,37,10.70
2009,09,20,09,38,10.80
2009,09,20,09,39,10.80
2009,09,20,09,40,10.90
2009,09,20,09,41,10.90
2009,09,20,09,42,11.00
2009,09,20,09,43,11.10
2009,09,20,09,44,11.20
2009,09,20,09,45,11.20
2009,09,20,09,46,11.30
2009,09,20,09,47,11.40
2009,09,20,09,48,11.60
2009,09,20,09,49,11.70
2009,09,20,09,50,11.80
2009,09,20,09,51,11.90
2009,09,20,09,52,12.00
2009,09,20,09,53,12.10
2009,09,20,09,54,12.20
2009,09,20,09,55,12.30
2009,09,20,09,56,12.30
2009,09,20,09,57,12.40
2009,09,20,09,58,12.50
2009,09,20,09,59,12.60
2009,09,20,10,00,12.70
2009,09,20,10,01,12.80
2009,09,20,10,02,12.90
2009,09,20,10,03,13.00
2009,09,20,10,04,13.10
2009,09,20,10,05,13.20
2009,09,20,10,06,13.30
2009,09,20,10,07,13.40
2009,09,20,10,08,13.40
2009,09,20,10,09,13.50
2009,09,20,10,10,13.60
2009,09,20,10,11,13.60
2009,09,20,10,12,13.70
2009,09,20,10,13,13.80
2009,09,20,10,14,13.90
2009,09,20,10,15,14.00
2009,09,20,10,16,14.10
2009,09,20,10,17,14.10
2009,09,20,10,18,14.20
2009,09,20,10,19,14.30
2009,09,20,10,20,14.40
2009,09,20,10,21,14.50
2009,09,20,10,22,14.50
2009,09,20,10,23,14.60
2009,09,20,10,24,14.70
2009,09,20,10,25,14.70
2009,09,20,10,26,14.80
2009,09,20,10,27,14.90
2009,09,20,10,28,15.00
2009,09,20,10,29,15.00
2009,09,20,10,30,15.00
2009,09,20,10,31,15.00
2009,09,20,10,32,15.00
2009,09,20,10,33,15.00
2009,09,20,10,34,15.10
2009,09,20,10,35,15.20
2009,09,20,10,36,15.20
2009,09,20,10,37,15.30
2009,09,20,10,38,15.30
2009,09,20,10,39,15.40
2009,09,20,10,40,15.40
2009,09,20,10,41,15.40
2009,09,20,10,42,15.40
2009,09,20,10,43,15.40
2009,09,20,10,44,15.50
2009,09,20,10,45,15.60
2009,09,20,10,46,15.60
2009,09,20,10,47,15.60
2009,09,20,10,48,15.70
2009,09,20,10,49,15.70
2009,09,20,10,50,15.70
2009,09,20,10,51,15.70
2009,09,20,10,52,15.70
2009,09,20,10,53,15.80
2009,09,20,10,54,15.80
2009,09,20,10,55,15.80
2009,09,20,10,56,15.90
2009,09,20,10,57,15.90
2009,09,20,10,58,15.90
2009,09,20,10,59,16.00
2009,09,20,11,00,16.00
2009,09,20,11,01,16.00
2009,09,20,11,02,16.10
2009,09,20,11,03,16.10
2009,09,20,11,04,16.10
2009,09,20,11,05,16.10
2009,09,20,11,06,16.10
2009,09,20,11,07,16.20
2009,09,20,11,08,16.20
2009,09,20,11,09,16.30
2009,09,20,11,10,16.30
2009,09,20,11,11,16.30
2009,09,20,11,12,16.40
2009,09,20,11,13,16.40
2009,09,20,11,14,16.30
2009,09,20,11,15,16.30
2009,09,20,11,16,16.30
2009,09,20,11,17,16.30
2009,09,20,11,18,16.30
2009,09,20,11,19,16.30
2009,09,20,11,20,16.30
2009,09,20,11,21,16.40
2009,09,20,11,22,16.40
2009,09,20,11,23,16.40
2009,09,20,11,24,16.40
2009,09,20,11,25,16.40
2009,09,20,11,26,16.40
2009,09,20,11,27,16.50
2009,09,20,11,28,16.60
2009,09,20,11,29,16.60
2009,09,20,11,30,16.60
2009,09,20,11,31,16.60
2009,09,20,11,32,16.60
2009,09,20,11,33,16.60
2009,09,20,11,34,16.60
2009,09,20,11,35,16.60
2009,09,20,11,36,16.60
2009,09,20,11,37,16.60
2009,09,20,11,38,16.60
2009,09,20,11,39,16.60
2009,09,20,11,40,16.60
2009,09,20,11,41,16.70
2009,09,20,11,42,16.70
2009,09,20,11,43,16.70
2009,09,20,11,44,16.70
2009,09,20,11,45,16.80
2009,09,20,11,46,16.80
2009,09,20,11,47,16.80
2009,09,20,11,48,16.80
2009,09,20,11,49,16.80
2009,09,20,11,50,16.90
2009,09,20,11,51,16.90
2009,09,20,11,52,16.90
2009,09,20,11,53,16.90
2009,09,20,11,54,17.00
2009,09,20,11,55,16.90
2009,09,20,11,56,17.00
2009,09,20,11,57,16.90
2009,09,20,11,58,16.90
2009,09,20,11,59,16.90
2009,09,20,12,00,16.90
2009,09,20,12,01,16.90
2009,09,20,12,02,17.00
2009,09,20,12,03,17.00
2009,09,20,12,04,17.00
2009,09,20,12,05,17.00
2009,09,20,12,06,17.00
2009,09,20,12,07,16.90
2009,09,20,12,08,16.90
2009,09,20,12,09,16.90
2009,09,20,12,10,16.80
2009,09,20,12,11,16.80
2009,09,20,12,12,16.90
2009,09,20,12,13,16.90
2009,09,20,12,14,16.90
2009,09,20,12,15,17.00
2009,09,20,12,16,17.00
2009,09,20,12,17,17.00
2009,09,20,12,18,17.10
2009,09,20,12,19,17.10
2009,09,20,12,20,17.10
2009,09,20,12,21,17.10
2009,09,20,12,22,17.20
2009,09,20,12,23,17.20
2009,09,20,12,24,17.20
2009,09,20,12,25,17.10
2009,09,20,12,26,17.10
2009,09,20,12,27,17.10
2009,09,20,12,28,17.10
2009,09,20,12,29,17.10
2009,09,20,12,30,17.10
2009,09,20,12,31,17.10
2009,09,20,12,32,17.10
2009,09,20,12,33,17.10
2009,09,20,12,34,17.00
2009,09,20,12,35,17.00
2009,09,20,12,36,17.00
2009,09,20,12,37,17.00
2009,09,20,12,38,17.00
2009,09,20,12,39,17.00
2009,09,20,12,40,17.00
2009,09,20,12,41,17.00
2009,09,20,12,42,17.00
2009,09,20,12,43,17.00
2009,09,20,12,44,17.00
2009,09,20,12,45,17.00
2009,09,20,12,46,17.00
2009,09,20,12,47,17.00
2009,09,20,12,48,16.90
2009,09,20,12,49,16.90
2009,09,20,12,50,16.90
2009,09,20,12,51,16.90
2009,09,20,12,52,17.00
2009,09,20,12,53,17.00
2009,09,20,12,54,17.10
2009,09,20,12,55,17.10
2009,09,20,12,56,17.10
2009,09,20,12,57,17.10
2009,09,20,12,58,17.10
2009,09,20,12,59,17.10
2009,09,20,13,00,17.10
2009,09,20,13,01,17.10
2009,09,20,13,02,17.10
2009,09,20,13,03,17.10
2009,09,20,13,04,17.10
2009,09,20,13,05,17.10
2009,09,20,13,06,17.10
2009,09,20,13,07,17.20
2009,09,20,13,08,17.20
2009,09,20,13,09,17.20
2009,09,20,13,10,17.20
2009,09,20,13,11,17.20
2009,09,20,13,12,17.20
2009,09,20,13,13,17.30
2009,09,20,13,14,17.30
2009,09,20,13,15,17.40
2009,09,20,13,16,17.40
2009,09,20,13,17,17.40
2009,09,20,13,18,17.50
2009,09,20,13,19,17.50
2009,09,20,13,20,17.50
2009,09,20,13,21,17.50
2009,09,20,13,22,17.50
2009,09,20,13,23,17.60
2009,09,20,13,24,17.50
2009,09,20,13,25,17.60
2009,09,20,13,26,17.60
2009,09,20,13,27,17.60
2009,09,20,13,28,17.70
2009,09,20,13,29,17.70
2009,09,20,13,30,17.70
2009,09,20,13,31,17.80
2009,09,20,13,32,17.80
2009,09,20,13,33,17.90
2009,09,20,13,34,17.90
2009,09,20,13,35,17.90
2009,09,20,13,36,17.90
2009,09,20,13,37,17.80
2009,09,20,13,38,17.80
2009,09,20,13,39,17.80
2009,09,20,13,40,17.90
2009,09,20,13,41,17.90
2009,09,20,13,42,17.90
2009,09,20,13,43,17.90
2009,09,20,13,44,17.90
2009,09,20,13,45,17.90
2009,09,20,13,46,17.90
2009,09,20,13,47,17.90
2009,09,20,13,48,17.90
2009,09,20,13,49,17.90
2009,09,20,13,50,17.90
2009,09,20,13,51,17.90
2009,09,20,13,52,17.90
2009,09,20,13,53,17.90
2009,09,20,13,54,17.90
2009,09,20,13,55,17.90
2009,09,20,13,56,17.80
2009,09,20,13,57,17.80
2009,09,20,13,58,17.80
2009,09,20,13,59,17.80
2009,09,20,14,00,17.80
2009,09,20,14,01,17.80
2009,09,20,14,02,17.80
2009,09,20,14,03,17.80
2009,09,20,14,04,17.80
2009,09,20,14,05,17.80
2009,09,20,14,06,17.80
2009,09,20,14,07,17.80
2009,09,20,14,08,17.80
2009,09,20,14,09,17.80
2009,09,20,14,10,17.80
2009,09,20,14,11,17.80
2009,09,20,14,12,17.80
2009,09,20,14,13,17.90
2009,09,20,14,14,17.90
2009,09,20,14,15,17.90
2009,09,20,14,16,17.90
2009,09,20,14,17,17.90
2009,09,20,14,18,17.90
2009,09,20,14,19,17.90
2009,09,20,14,20,17.90
2009,09,20,14,21,17.90
2009,09,20,14,22,17.90
2009,09,20,14,23,17.90
2009,09,20,14,24,17.80
2009,09,20,14,25,17.80
2009,09,20,14,26,17.80
2009,09,20,14,27,17.80
2009,09,20,14,28,17.80
2009,09,20,14,29,17.70
2009,09,20,14,30,17.70
2009,09,20,14,31,17.70
2009,09,20,14,32,17.70
2009,09,20,14,33,17.80
2009,09,20,14,34,17.80
2009,09,20,14,35,17.80
2009,09,20,14,36,17.70
2009,09,20,14,37,17.70
2009,09,20,14,38,17.80
2009,09,20,14,39,17.80
2009,09,20,14,40,17.80
2009,09,20,14,41,17.80
2009,09,20,14,42,17.90
2009,09,20,14,43,17.90
2009,09,20,14,44,17.90
2009,09,20,14,45,17.90
2009,09,20,14,46,17.90
2009,09,20,14,47,17.90
2009,09,20,14,48,17.80
2009,09,20,14,49,17.90
2009,09,20,14,50,17.90
2009,09,20,14,51,17.90
2009,09,20,14,52,17.80
2009,09,20,14,53,17.80
2009,09,20,14,54,17.80
2009,09,20,14,55,17.80
2009,09,20,14,56,17.80
2009,09,20,14,57,17.80
2009,09,20,14,58,17.80
2009,09,20,14,59,17.80
2009,09,20,15,00,17.80
2009,09,20,15,01,17.90
2009,09,20,15,02,17.90
2009,09,20,15,03,17.90
2009,09,20,15,04,17.90
2009,09,20,15,05,17.90
2009,09,20,15,06,17.90
2009,09,20,15,07,17.90
2009,09,20,15,08,17.80
2009,09,20,15,09,17.80
2009,09,20,15,10,17.90
2009,09,20,15,11,17.90
2009,09,20,15,12,17.90
2009,09,20,15,13,18.00
2009,09,20,15,14,18.00
2009,09,20,15,15,18.10
2009,09,20,15,16,18.10
2009,09,20,15,17,18.10
2009,09,20,15,18,18.10
2009,09,20,15,19,18.10
2009,09,20,15,20,18.10
2009,09,20,15,21,18.10
2009,09,20,15,22,18.10
2009,09,20,15,23,18.10
2009,09,20,15,24,18.10
2009,09,20,15,25,18.10
2009,09,20,15,26,18.10
2009,09,20,15,27,18.20
2009,09,20,15,28,18.20
2009,09,20,15,29,18.20
2009,09,20,15,30,18.20
2009,09,20,15,31,18.20
2009,09,20,15,32,18.20
2009,09,20,15,33,18.20
2009,09,20,15,34,18.20
2009,09,20,15,35,18.20
2009,09,20,15,36,18.30
2009,09,20,15,37,18.30
2009,09,20,15,38,18.30
2009,09,20,15,39,18.30
2009,09,20,15,40,18.30
2009,09,20,15,41,18.30
2009,09,20,15,42,18.30
2009,09,20,15,43,18.30
2009,09,20,15,44,18.30
2009,09,20,15,45,18.30
2009,09,20,15,46,18.40
2009,09,20,15,47,18.40
2009,09,20,15,48,18.40
2009,09,20,15,49,18.40
2009,09,20,15,50,18.40
2009,09,20,15,51,18.50
2009,09,20,15,52,18.50
2009,09,20,15,53,18.50
2009,09,20,15,54,18.50
2009,09,20,15,55,18.50
2009,09,20,15,56,18.50
2009,09,20,15,57,18.50
2009,09,20,15,58,18.50
2009,09,20,15,59,18.50
2009,09,20,16,00,18.60
2009,09,20,16,01,18.60
2009,09,20,16,02,18.60
2009,09,20,16,03,18.50
2009,09,20,16,04,18.50
2009,09,20,16,05,18.50
2009,09,20,16,06,18.50
2009,09,20,16,07,18.40
2009,09,20,16,08,18.40
2009,09,20,16,09,18.40
2009,09,20,16,10,18.40
2009,09,20,16,11,18.40
2009,09,20,16,12,18.30
2009,09,20,16,13,18.30
2009,09,20,16,14,18.20
2009,09,20,16,15,18.20
2009,09,20,16,16,18.20
2009,09,20,16,17,18.10
2009,09,20,16,18,18.10
2009,09,20,16,19,18.00
2009,09,20,16,20,18.00
2009,09,20,16,21,18.00
2009,09,20,16,22,18.00
2009,09,20,16,23,18.00
2009,09,20,16,24,18.00
2009,09,20,16,25,18.00
2009,09,20,16,26,18.10
2009,09,20,16,27,18.10
2009,09,20,16,28,18.10
2009,09,20,16,29,18.10
2009,09,20,16,30,18.20
2009,09,20,16,31,18.20
2009,09,20,16,32,18.20
2009,09,20,16,33,18.20
2009,09,20,16,34,18.20
2009,09,20,16,35,18.20
2009,09,20,16,36,18.20
2009,09,20,16,37,18.20
2009,09,20,16,38,18.20
2009,09,20,16,39,18.20
2009,09,20,16,40,18.20
2009,09,20,16,41,18.20
2009,09,20,16,42,18.20
2009,09,20,16,43,18.20
2009,09,20,16,44,18.20
2009,09,20,16,45,18.20
2009,09,20,16,46,18.20
2009,09,20,16,47,18.20
2009,09,20,16,48,18.20
2009,09,20,16,49,18.20
2009,09,20,16,50,18.20
2009,09,20,16,51,18.20
2009,09,20,16,52,18.20
2009,09,20,16,53,18.20
2009,09,20,16,54,18.20
2009,09,20,16,55,18.20
2009,09,20,16,56,18.20
2009,09,20,16,57,18.20
2009,09,20,16,58,18.20
2009,09,20,16,59,18.20
2009,09,20,17,00,18.20
2009,09,20,17,01,18.10
2009,09,20,17,02,18.10
2009,09,20,17,03,18.10
2009,09,20,17,04,18.10
2009,09,20,17,05,18.10
2009,09,20,17,06,18.10
2009,09,20,17,07,18.10
2009,09,20,17,08,18.10
2009,09,20,17,09,18.10
2009,09,20,17,10,18.10
2009,09,20,17,11,18.10
2009,09,20,17,12,18.10
2009,09,20,17,13,18.10
2009,09,20,17,14,18.10
2009,09,20,17,15,18.10
2009,09,20,17,16,18.10
2009,09,20,17,17,18.10
2009,09,20,17,18,18.10
2009,09,20,17,19,18.10
2009,09,20,17,20,18.10
2009,09,20,17,21,18.10
2009,09,20,17,22,18.10
2009,09,20,17,23,18.00
2009,09,20,17,24,18.00
2009,09,20,17,25,17.90
2009,09,20,17,26,17.90
2009,09,20,17,27,17.80
2009,09,20,17,28,17.80
2009,09,20,17,29,17.80
2009,09,20,17,30,17.70
2009,09,20,17,31,17.70
2009,09,20,17,32,17.70
2009,09,20,17,33,17.60
2009,09,20,17,34,17.60